Regional Weather Roundup
Issued by NWS Sterling, VA

Home | Current Version | Previous Version | Text Only | Print | Product List | Glossary Off
Versions: 1 2 3 4 5 6 7 8 9 10 11 12 13 14 15 16 17 18 19 20 21 22 23 24 25 26 27 28 29 30 31 32 33 34 35 36 37 38 39 40 41 42 43 44 45 46 47 48 49 50

000
ASUS41 KLWX 230211
RWRLWX

REGIONAL WEATHER ROUNDUP
NATIONAL WEATHER SERVICE BALTIMORE MD/WASHINGTON DC
1000 PM EDT SAT APR 22 2017

Note: "FAIR" indicates few or no clouds below 12,000 feet
with no significant weather and/or obstructions to visibility.
 TC=TEMPERATURE CELSIUS

 * =Non NWS site. Station does not report precipitation (e.g. rain,
    snow, etc.), thunder, or fog.

DCZ001-MDZ009-015-VAZ040>042-051-053>054-230300-
WASHINGTON METRO

CITY           SKY/WX    TMP DP  RH WIND       PRES   REMARKS
WASHINGTON NAT MOCLDY    53  50  89 NW10      30.02F
DULLES         CLOUDY    50  47  89 N5        30.01F
ANDREWS AFB    PTCLDY    51  49  93 NW7       30.01R
FT BELVOIR     CLOUDY    52  49  89 CALM      30.01S
QUANTICO       CLOUDY    53  51  93 N7        30.02R
COLLEGE PARK*  CLOUDY    50  48  93 CALM      30.01F
LEESBURG*      CLOUDY    50  50 100 N3        30.03S
MANASSAS*        N/A     49  47  93 N5        30.03S

$$

MDZ006>007-011-014-230300-
BALTIMORE METRO

CITY           SKY/WX    TMP DP  RH WIND       PRES   REMARKS
BWI AIRPORT    CLOUDY    50  50 100 NW5       30.01R
MD SCIENCE CTR   N/A     54  46  74 MISG      30.02R
MARTIN STATE   CLOUDY    52  52 100 CALM      30.02R
ANNAPOLIS      CLOUDY    55  51  86 N6        30.01R
FORT MEADE*    CLOUDY    50  46  87 CALM      30.04R

$$

MDZ012-015-019>023-230300-
MARYLAND EASTERN SHORE

CITY           SKY/WX    TMP DP  RH WIND       PRES   REMARKS
OCEAN CITY     CLOUDY    52  49  89 NE8       29.99R
SALISBURY      CLOUDY    52  52 100 N6        29.98R
BAY BRIDGE AP* CLOUDY    54  50  87 N9G17     30.01R
CAMBRIDGE*     CLOUDY    54  50  87 N5        30.00R

$$

MDZ017>025-230300-
SOUTHERN MARYLAND

CITY           SKY/WX    TMP DP  RH WIND       PRES   REMARKS
PATUXENT RIVER CLOUDY    54  54 100 NE7       29.99R
ST INIGOES     CLOUDY    54  52  93 CALM      29.99R
LEONARDTOWN*   CLOUDY    52  50  93 CALM      30.01R

$$

MDZ003>005-230300-
NORTH CENTRAL MARYLAND

CITY           SKY/WX    TMP DP  RH WIND       PRES   REMARKS
FREDERICK*     FOG       50  50 100 CALM      30.05S VSB 1/4
HAGERSTOWN APT PTCLDY    49  48  97 SE3       30.02R
WESTMINSTER*   PTCLDY    48  48 100 CALM      30.01F

$$

MDZ501>502-230300-
WESTERN MARYLAND

CITY           SKY/WX    TMP DP  RH WIND       PRES   REMARKS
OAKLAND*       CLOUDY    37  34  87 CALM      30.04R
CUMBERLAND*    MOCLDY    46  46 100 CALM      30.09R

$$

VAZ025>031-230300-
SHENANDOAH VALLEY

CITY           SKY/WX    TMP DP  RH WIND       PRES   REMARKS
WINCHESTER*    FOG       43  43 100 CALM      30.03S VSB 1/4
FRONT ROYAL*   CLOUDY    45  45 100 SW3       30.03R VSB 1/2
LURAY*         MOCLDY    46  46 100 SW3       30.04R FOG
NEW MARKET*    PTCLDY    46  44  94 CALM      30.04R
STAUNTON*      CLOUDY    48  46  93 N7        30.06R
WAYNESBORO*    CLOUDY    48  47  98 NW3       30.03R

$$

WVZ021-048>050-054>055-230300-
EASTERN WEST VIRGINIA PANHANDLE

CITY           SKY/WX    TMP DP  RH WIND       PRES   REMARKS
MARTINSBURG    PTCLDY    46  45  96 CALM      30.02R FOG
PETERSBURG*    PTCLDY    48  47  97 CALM      30.06S

$$

VAZ036>039-050-230300-
CENTRAL FOOTHILLS

CITY           SKY/WX    TMP DP  RH WIND       PRES   REMARKS
CHARLOTTESVILL CLOUDY    51  48  89 CALM      30.03R
CULPEPER*      CLOUDY    50  49  97 CALM      30.05R
ORANGE*        CLOUDY    50  45  81 CALM      30.03R
GORDONSVILLE*  CLOUDY    50  47  88 N6        30.03R
WARRENTON*     CLOUDY    50  46  86 CALM      30.02S

$$

VAZ055>057-230300-
NORTH AND CENTRAL PIEDMONT

CITY           SKY/WX    TMP DP  RH WIND       PRES   REMARKS
FREDERICKSBRG* CLOUDY    51  51 100 N6        30.00F
STAFFORD*      CLOUDY    49  49  99 N6        30.05S

$$

NCZ024-NYZ072-PAZ021-071-VAZ022-071-230300-
OTHER REGIONAL OBSERVATIONS

CITY           SKY/WX    TMP DP  RH WIND       PRES   REMARKS
NEW YORK CITY  CLOUDY    52  40  63 CALM      30.02R
PHILADELPHIA   CLOUDY    53  49  86 NW5       30.00R
PITTSBURGH     MOCLDY    50  34  54 N8        30.06R
ROANOKE        LGT RAIN  53  50  89 NE8       30.01R
RICHMOND       LGT RAIN  54  53  97 N7        30.00R
RALEIGH        CLOUDY    58  54  86 NE15G22   29.95R

$$

ANZ530>537-230300-
MARINE OBSERVATIONS

STATION/POSITION TIME  TEMP    WIND        PRES
                       AIR SEA DIR/SP/G
                 (UTC) (F)     (DEG/KT/KT) (MB)
THOMAS PT LIGHT  0100   54 58  360/ 10/ 11   N/A
BALT KEY BRIDGE  0142   54     330/  8/ 10 1016.1R
COVE POINT       0142   54      30/ 11/ 13 1016.1R
LEWISETTA        0142   56 65   50/  7/ 10 1015.3R
SOLOMONS ISLAND  0142   54 62  320/  3/  5   N/A
PINEY POINT      0136           20/  5/  6   N/A

$$




USA.gov is the U.S. government's official web portal to all federal, state and local government web resources and services.